Flag for Canada Weather past 2 weeks in Peterborough, Ontario, Canada

55 °F


Feels Like: 52 °F
Forecast: 39 / 52 °F
Wind: 15 mph from West

Location: Peterborough Airport

Current Time: Oct 14, 2015 at 12:01:24 AM

Latest Report: Oct 13, 2015 at 11:00 PM

Visibility: 9 mi

Pressure: 29.54 "Hg

Humidity: 82%

Dew point: 50 °F

Location of PeterboroughLocation

Historic Weather in Peterborough — Graph


Peterborough temperature yesterday

Maximum temperature yesterday: 59 °F (at 12:00 AM)
Minimum temperature yesterday: 55 °F (at 7:02 PM)
Average temperature yesterday: 58 °F

Past Weeks' High & Low Weather Summary

High70 °F (Sep 29, 10:00 AM)100% (Sep 29, 5:58 AM)30.51 "Hg (Sep 29, 5:58 AM)
Low32 °F (Oct 8, 7:00 AM)36% (Oct 1, 3:00 PM)29.34 "Hg (Oct 13, 8:00 AM)
Average53 °F76%30.06 "Hg
* Reported Sep 28 10:00 PM — Oct 13 10:00 PM, Peterborough, Weather by CustomWeather, © 2015

Note: Actual official high and low records may vary slightly from our data, if they occured in-between our weather recording intervals... More about our weather records


Peterborough weather history for previous 24 hours

Time TempWeatherWind HumidityBarometerVisibility
10:00 PM
Tue, Oct 13
55 °FMostly cloudy.16 mph82%29.52 "Hg9 mi
9:00 PM55 °FOvercast.12 mph82%29.49 "Hg9 mi
8:00 PM55 °FMostly cloudy.9 mph88%29.47 "Hg9 mi
7:02 PM55 °FCloudy.12 mph82%29.45 "Hg9 mi
6:00 PM57 °FMostly cloudy.13 mph72%29.43 "Hg9 mi
5:03 PM57 °FLight rain. Overcast.12 mph72%29.42 "Hg9 mi
4:00 PM57 °FOvercast.12 mph72%29.41 "Hg9 mi
3:00 PM59 °FMostly cloudy.17 mph63%29.39 "Hg9 mi
2:00 PM59 °FMostly cloudy.14 mph59%29.39 "Hg9 mi
1:00 PM59 °FPartly sunny.12 mph63%29.39 "Hg9 mi
12:00 PM59 °FBroken clouds.15 mph63%29.39 "Hg9 mi
11:00 AM57 °FPartly sunny.12 mph77%29.38 "Hg9 mi
10:53 AM59 °FCloudy.14 mph72%29.38 "Hg9 mi
10:00 AM59 °FMostly cloudy.9 mph82%29.37 "Hg9 mi
9:00 AM59 °FScattered clouds.8 mph94%29.36 "Hg9 mi
8:00 AM59 °FPassing clouds.7 mph94%29.34 "Hg9 mi
7:00 AM59 °FOvercast.7 mph94%29.35 "Hg9 mi
6:48 AM59 °FOvercast.7 mph94%29.35 "Hg9 mi
6:00 AM57 °FLight rain. Mostly cloudy.7 mph100%29.36 "Hg9 mi
5:56 AM57 °FLight rain. Mostly cloudy.7 mph100%29.35 "Hg9 mi
5:00 AM57 °FLight rain. Overcast.5 mph100%29.36 "Hg9 mi
4:00 AM59 °FLight rain. Overcast.9 mph94%29.37 "Hg9 mi
3:02 AM59 °FLight rain. Mostly cloudy.14 mph88%29.39 "Hg9 mi
2:04 AM59 °FOvercast.13 mph88%29.41 "Hg9 mi
1:53 AM59 °FLight rain. Mostly cloudy.7 mph88%29.42 "Hg9 mi
1:01 AM59 °FMostly cloudy.7 mph88%29.43 "Hg9 mi
12:00 AM59 °FRain. Overcast.9 mph88%29.47 "Hg9 mi
Weather by CustomWeather, © 2015

See weather overviewHow to use our weather pages